Location: Unspecified
(0.0000°N, 0.0000°E)
Time: 09:37:09
(UTC+00:00)

Vanguard 2 Rocket - Pass Details

Date: 13 October 2022
Orbit: 555 x 3321 km, 32.9° (Epoch: 29 November)

Event Time Altitude Azimuth Distance (km) Brightness Sun altitude
Rises 21:25:41 0° 299° (WNW) 7,295 11.9 -54.1°
Reaches altitude 10° 21:34:53 10° 320° (NW) 6,059 11.2 -56.3°
Enters shadow 21:43:12 15° 347° (NNW) 5,233 10.6 -58.3°
